Location: Unspecified
(0.0000°N, 0.0000°E)
Time: 09:21:06
(UTC+00:00)

O/OREOS (USA 219) - Pass Details

Date: 18 May 2021
Orbit: 621 x 646 km, 72.0° (Epoch: 22 May)

Event Time Altitude Azimuth Distance (km) Brightness Sun altitude
Exits shadow 03:48:53 - 148° (SSE) 2,524 ? -29.9°
Reaches altitude 10° 03:51:45 10° 119° (ESE) 1,986 ? -29.2°
Maximum altitude 03:52:47 11° 105° (ESE) 1,938 ? -29.0°
Drops below altitude 10° 03:53:49 10° 91° (E) 1,984 ? -28.7°
Sets 03:57:57 0° 54° (NE) 2,885 ? -27.8°
